Weather History for Kremmling, CO

Change the Weather History Date:

Monday, June 17, 2013

  Actual Average (KEGE) Record (KEGE)
Temperature  
Mean Temperature 58 °F -  
Max Temperature 78 °F 80 °F 93 °F (1977)
Min Temperature 37 °F 41 °F 29 °F (1952)
Degree Days  
Heating Degree Days 8    
Growing Degree Days 8 (Base 50)    
Moisture  
Dew Point 31 °F    
Average Humidity 45    
Maximum Humidity 93    
Minimum Humidity 9    
Precipitation  
Precipitation 0.00 in - - ()
Sea Level Pressure  
Sea Level Pressure 30.29 in    
Wind  
Wind Speed 3 mph (SW)    
Max Wind Speed 21 mph    
Max Gust Speed 29 mph    
Visibility 10 miles    
Events Rain , Thunderstorm    
Averages and records for this station are not official NWS values.
T = Trace of Precipitation, MM = Missing Value Source: NWS Daily Summary

Daily Weather History Graph

Daily Weather History Graph

Search for Another Location

Airport:

Trip Planner

Search our weather history database for the weather conditions in past years. The results will help you decide how hot, cold, wet, or windy it might be!

Date:

Astronomy

Jun. 17, 2013 Rise Set
Actual Time 5:36 AM MDT 8:37 PM MDT
Civil Twilight 5:03 AM MDT 9:09 PM MDT
Nautical Twilight 4:21 AM MDT 9:51 PM MDT
Astronomical Twilight 3:32 AM MDT 10:40 PM MDT
Moon 2:18 PM MDT (6/17) 1:13 AM MDT (6/17)
Length of Visible Light 16h 06m
Length of Day
15h 01m
First Quarter, 61% of the Moon is Illuminated
Jun 17
First Quarter
Jun 23
Full
Jun 29
Last Quarter
Jul 8
New
Jul 15
First Quarter

Hourly Weather History & Observations

Time (MDT) Temp. Windchill Dew Point Humidity Pressure Visibility Wind Dir Wind Speed Gust Speed Precip Events Conditions
12:15 AM 48.2 °F - 39.2 °F 71% 30.34 in 10.0 mi ENE 3.5 mph - N/A   Clear
12:36 AM 50.0 °F - 39.2 °F 66% 30.35 in 10.0 mi Calm Calm - N/A   Clear
12:55 AM 44.6 °F - 41.0 °F 87% 30.35 in 10.0 mi Calm Calm - N/A   Clear
1:16 AM 42.8 °F 41.1 °F 37.4 °F 81% 30.34 in 10.0 mi North 3.5 mph - N/A   Scattered Clouds
1:36 AM 44.6 °F - 39.2 °F 81% 30.33 in 10.0 mi Calm Calm - N/A   Mostly Cloudy
1:56 AM 46.4 °F - 41.0 °F 81% 30.32 in 10.0 mi Calm Calm - N/A   Scattered Clouds
2:16 AM 44.6 °F - 37.4 °F 76% 30.32 in 10.0 mi Calm Calm - N/A   Clear
2:36 AM 44.6 °F - 37.4 °F 76% 30.32 in 10.0 mi Calm Calm - N/A   Clear
2:56 AM 42.8 °F 41.1 °F 37.4 °F 81% 30.32 in 10.0 mi East 3.5 mph - N/A   Scattered Clouds
3:16 AM 44.6 °F - 37.4 °F 76% 30.32 in 10.0 mi Calm Calm - N/A   Scattered Clouds
3:36 AM 44.6 °F 43.1 °F 37.4 °F 76% 30.32 in 10.0 mi ENE 3.5 mph - N/A   Scattered Clouds
3:56 AM 42.8 °F - 37.4 °F 81% 30.33 in 10.0 mi Calm Calm - N/A   Scattered Clouds
4:15 AM 42.8 °F - 35.6 °F 76% 30.32 in 10.0 mi Calm Calm - N/A   Clear
4:36 AM 41.0 °F - 35.6 °F 81% 30.33 in 10.0 mi Calm Calm - N/A   Clear
4:56 AM 41.0 °F - 37.4 °F 87% 30.33 in 10.0 mi Calm Calm - N/A   Clear
5:16 AM 39.2 °F - 35.6 °F 87% 30.33 in 10.0 mi Calm Calm - N/A   Clear
5:36 AM 37.4 °F - 35.6 °F 93% 30.33 in 10.0 mi Calm Calm - N/A   Scattered Clouds
5:56 AM 39.2 °F - 35.6 °F 87% 30.34 in 10.0 mi Calm Calm - N/A   Scattered Clouds
6:16 AM 42.8 °F - 37.4 °F 81% 30.34 in 10.0 mi Calm Calm - N/A   Scattered Clouds
6:36 AM 44.6 °F - 37.4 °F 76% 30.35 in 10.0 mi Calm Calm - N/A   Clear
6:56 AM 46.4 °F - 39.2 °F 76% 30.36 in 10.0 mi Calm Calm - N/A   Clear
7:16 AM 50.0 °F - 41.0 °F 71% 30.35 in 10.0 mi Calm Calm - N/A   Clear
7:36 AM 50.0 °F - 39.2 °F 66% 30.36 in 10.0 mi Calm Calm - N/A   Clear
7:56 AM 51.8 °F - 39.2 °F 62% 30.36 in 10.0 mi Calm Calm - N/A   Clear
8:15 AM 51.8 °F - 37.4 °F 58% 30.36 in 10.0 mi Calm Calm - N/A   Clear
8:36 AM 53.6 °F - 37.4 °F 54% 30.35 in 10.0 mi Calm Calm - N/A   Clear
8:56 AM 55.4 °F - 37.4 °F 51% 30.35 in 10.0 mi Calm Calm - N/A   Clear
9:15 AM 55.4 °F - 37.4 °F 51% 30.34 in 10.0 mi Calm Calm - N/A   Clear
9:36 AM 59.0 °F - 35.6 °F 42% 30.34 in 10.0 mi Calm Calm - N/A   Clear
9:56 AM 60.8 °F - 37.4 °F 42% 30.33 in 10.0 mi Calm Calm - N/A   Clear
10:16 AM 60.8 °F - 35.6 °F 39% 30.32 in 10.0 mi Calm Calm - N/A   Clear
10:35 AM 64.4 °F - 35.6 °F 34% 30.32 in 10.0 mi ESE 3.5 mph - N/A   Clear
10:56 AM 66.2 °F - 37.4 °F 35% 30.32 in 10.0 mi WNW 3.5 mph - N/A   Clear
11:06 AM 68.0 °F - 35.6 °F 30% 30.31 in 10.0 mi Calm Calm - N/A   Clear
11:35 AM 69.8 °F - 37.4 °F 31% 30.30 in 10.0 mi Calm Calm - N/A Thunderstorm Scattered Clouds
11:51 AM 69.8 °F - 30.2 °F 23% 30.29 in 10.0 mi NW 4.6 mph 27.6 mph N/A Rain Light Rain
12:10 PM 66.2 °F - 37.4 °F 35% 30.30 in 10.0 mi NW 5.8 mph - N/A   Scattered Clouds
12:32 PM 69.8 °F - 30.2 °F 23% 30.30 in 10.0 mi SW 8.1 mph - N/A   Mostly Cloudy
12:44 PM 68.0 °F - 21.2 °F 17% 30.30 in 10.0 mi SW 20.7 mph 28.8 mph N/A   Overcast
1:46 PM 77.0 °F - 21.2 °F 12% 30.27 in 10.0 mi SW 9.2 mph - N/A   Clear
2:14 PM 73.4 °F - 26.6 °F 18% 30.27 in 10.0 mi WSW 11.5 mph 21.9 mph N/A   Clear
2:17 PM 73.4 °F - 24.8 °F 16% 30.26 in 10.0 mi WSW 16.1 mph 20.7 mph N/A   Clear
2:50 PM 77.0 °F - 21.2 °F 12% 30.26 in 10.0 mi WSW 15.0 mph 19.6 mph N/A   Clear
3:05 PM 78.8 °F - 19.4 °F 11% 30.26 in 10.0 mi SW 11.5 mph 19.6 mph N/A   Clear
3:29 PM 73.4 °F - 21.2 °F 14% 30.26 in 10.0 mi WSW 11.5 mph - N/A   Clear
3:56 PM 73.4 °F - 24.8 °F 16% 30.25 in 10.0 mi WSW 15.0 mph 20.7 mph N/A   Clear
4:16 PM 73.4 °F - 23.0 °F 15% 30.25 in 10.0 mi SW 11.5 mph - N/A   Clear
4:36 PM 78.8 °F - 19.4 °F 11% 30.24 in 10.0 mi WSW 11.5 mph - N/A   Clear
4:56 PM 77.0 °F - 15.8 °F 10% 30.24 in 10.0 mi West 12.7 mph 16.1 mph N/A   Clear
5:16 PM 77.0 °F - 17.6 °F 11% 30.23 in 10.0 mi SSW 11.5 mph - N/A   Clear
5:36 PM 78.8 °F - 15.8 °F 9% 30.22 in 10.0 mi NW 4.6 mph - N/A   Clear
5:56 PM 77.0 °F - 14.0 °F 9% 30.21 in 10.0 mi West 5.8 mph - N/A   Clear
6:16 PM 77.0 °F - 14.0 °F 9% 30.21 in 10.0 mi WNW 5.8 mph - N/A   Clear
6:36 PM 77.0 °F - 17.6 °F 11% 30.21 in 10.0 mi West 9.2 mph - N/A   Clear
6:56 PM 75.2 °F - 17.6 °F 11% 30.20 in 10.0 mi West 5.8 mph - N/A   Clear
7:16 PM 73.4 °F - 21.2 °F 14% 30.21 in 10.0 mi WSW 6.9 mph - N/A   Clear
7:36 PM 73.4 °F - 24.8 °F 16% 30.21 in 10.0 mi West 4.6 mph - N/A   Clear
7:56 PM 71.6 °F - 23.0 °F 16% 30.20 in 10.0 mi WNW 3.5 mph - N/A   Clear
8:16 PM 69.8 °F - 30.2 °F 23% 30.21 in 10.0 mi SSW 4.6 mph - N/A   Clear
8:36 PM 62.6 °F - 32.0 °F 32% 30.22 in 10.0 mi Calm Calm - N/A   Clear
8:56 PM 59.0 °F - 32.0 °F 36% 30.22 in 10.0 mi West 6.9 mph - N/A   Clear
9:16 PM 60.8 °F - 32.0 °F 34% 30.22 in 10.0 mi South 9.2 mph - N/A   Clear
9:35 PM 60.8 °F - 32.0 °F 34% 30.23 in 10.0 mi South 9.2 mph - N/A   Clear
9:55 PM 57.2 °F - 32.0 °F 38% 30.24 in 10.0 mi ESE 5.8 mph - N/A   Clear
10:15 PM 57.2 °F - 32.0 °F 38% 30.25 in 10.0 mi Calm Calm - N/A   Clear
10:35 PM 59.0 °F - 32.0 °F 36% 30.24 in 10.0 mi SE 4.6 mph - N/A   Clear
10:55 PM 55.4 °F - 32.0 °F 41% 30.25 in 10.0 mi ESE 3.5 mph - N/A   Clear
11:15 PM 53.6 °F - 33.8 °F 47% 30.25 in 10.0 mi ESE 6.9 mph - N/A   Clear
11:36 PM 53.6 °F - 32.0 °F 44% 30.25 in 10.0 mi ESE 4.6 mph - N/A   Clear
11:56 PM 50.0 °F - 35.6 °F 58% 30.26 in 10.0 mi ESE 8.1 mph - N/A   Clear